Погода в Тихвине

Погода в Тихвине : погода сейчас, прогноз погоды и архив. Всё, что Вы хотите узнать о погоде в Тихвине!

Хотите узнать прогноз погоды в Тихвине? Тогда Вам сюда: Погода в Тихвине

Поиск расширенной информации на нашем сайте:

Другие новости

Новости СМИ2

Главная страница сайта

Новости сайта

03.07.2017

Напоминаем, что на нашем специализированном сайте Метеоцентр.Азия вы можете получить высокодетализированные автоматические прогнозы погоды по пунктам России, СНГ и мира в авиационном формате (включающие направление и скорость ветра, видимость, явления погоды, количество и форму облачности, нижнюю и верхнюю границу облачности).


Погода в Тихвине - сегодня

Время (UTC), дата Ветер
(°,м/с) 
Видим.   Явления Облачность Т
(°С)
Тd
(°С)
f(%) Тe
(°С)
Pmin
(гПа)
dP
(гПа)
Po
(мм)
O2
(г/м3)
Тmin Tmax R s Состояние
почвы
09 19.09.17 260 (З) 20000 м  в посл. час дождь{морось}  9/9 540 м 
[St]
+12.8 +12 95 +17  998.6  3.1  743  284           
12 19.09.17 280 (З) 20000 м  {ливн. осадки, дождь}  10/10 420 м 
[St]
+11.5 +10.5 94 +14  1003.1  4.4  747  287           
15 19.09.17 270 (З) 3{10}  30000 м    10/10 800 м 
[Sc diur, vesp]
+9.4 +7.8 90 +9  1008.2  751  291         
18 19.09.17 240 (ЮЗ) 10 км    10/0 средняя 
[Ac und]
+9 +7.7 92 +9  1011.5  3.2  753  292    +13.7     
21 19.09.17 220 (ЮЗ) 20000 м    4/0 средняя 
[Ac trans]
+8.1 +7.2 94 +9  1013.7  3.2  755  294           
00 20.09.17 250 (З) 10 км    10/10 270 м 
[St]
+8.5 +7.9 96 +10  1015.4  1.7  756  294           
03 20.09.17 тихо ()   2000 м  дымка  10/10 180 м 
[St]
+8.3 +7.9 97 +8  1017.1  1.6  757  295  +7.7         
06 20.09.17 тихо ()   20000 м    10/10 300 м 
[St]
+9.5 +8.7 95 +10  1019  759  294  +7.7        влажная 
09 20.09.17 180 (Ю) 9000 м  слаб. морось  10/10 360 м 
[St]
+10.8 +9.9 94 +13  1020.7  1.7  760  293           
12 20.09.17 тихо ()   30000 м  в посл. час дождь{морось}  9/9 800 м 
[Sc]
+12.6 +11 90 +15  1022.4  1.7  761  291           
15 20.09.17 тихо ()   35000 м    5/3 600 м кучево-дожд., средняя, верхняя 
[Cb calv|Ac trans|Ci fib]
+11.9 +10.7 92 +14  1023.4  762  292         
18 20.09.17 тихо ()   4000 м  дымка  4/4 1300 м 
[Sc]
+8.2 +7.8 97 +8  1025.2  1.7  763  297    +15     
21 20.09.17 тихо ()   20000 м    ясно 
+8.6 +8.2 97 +9  1026.8  1.6  764  297           
00 21.09.17 тихо ()   20000 м    ясно 
+5.6 +5.3 98 +6  1028.3  1.4  765  301           
03 21.09.17 050 (СВ) 4000 м  дымка  1/0 верхняя 
[Ci fib]
+5.6 +5.3 98 +6  1029.6  1.3  766  302  +5.4         
06 21.09.17 090 (В) 0300 м  туман  10/0 верхняя 
[Cs]
+8.3 +8 98 +8  1030.7  1.2  767  299  +4.8        влажная 
09 21.09.17 100 (В) 27000 м  {туман}  6/5 600 м верхняя 
[Sc|Ci fib]
+12.8 +10.3 85 +14  1031.2  0.5  768  294           
12 21.09.17 080 (В) 30000 м  {туман}  8/3 600 м средняя, верхняя 
[Sc|Ac trans|Ci fib]
+14.9 +8.9 67 +15  1031.2  0.1  768  292           
15 21.09.17 070 (В) 30000 м    9/0 средняя 
[Ac trans]
+12.3 +8.1 76 +12  1031.9  0.6  768  295           
18 21.09.17 080 (В) 20000 м    ясно 
+8.8 +5.5 80 +8  1032.8  0.8  769  299    +15.7       
21 21.09.17 080 (В) 20000 м    ясно 
+6.6 +4.5 86 +6  1034  1.1  770  302           
00 22.09.17 070 (В) 20000 м    ясно 
+6.2 +5.1 93 +6  1033.9  0.1  770  302           
03 22.09.17 080 (В) 20000 м    8/0 средняя, верхняя 
[Ac trans|Ci fib]
+6.8 +6 95 +7  1034.6  0.8  770  302  +5.7         
06 22.09.17 090 (В) 20000 м    8/1 300 м средняя 
[St|Ac trans]
+9.4 +6.3 81 +9  1034.8  0.2  770  299  +5.7        влажная 
09 22.09.17 130 (ЮВ) 40000 м    5/3 600 м верхняя 
[Cu Sc|Ci fib]
+11.5 +5.8 68 +11  1033.8  -0.9  770  297           
Время (UTC), дата Ветер
(°,м/с) 
Видим.   Явления Облачность Т
(°С)
Тd
(°С)
f(%) Тe
(°С)
Pmin
(гПа)
dP
(гПа)
Po
(мм)
O2
(г/м3)
Тmin Tmax R s Состояние
почвы

Для получения пояснительной информации подведите курсор к названию столбца.

ПОГОДА в Тихвине - архив

Всё, что Вы хотите узнать о погоде в Тихвине - удобно и подробно!

Выберите нужную дату (начиная с 1 января 2015* года) и нажмите кнопку "Найти".
Будут отображены архивные сводки погоды по пункту Тихвин, начиная с указанной даты.


Отображать данные в формате CSV (для использования в таблицах Excel)


Внимание! Наш архив погоды предназначен исключительно для личного некоммерческого использования в познавательных целях. Если Вам необходимы официальные справки о состоянии погоды (для производственных, юридических, коммерческих и т.п. целей), обращайтесь в органы Росгидромета.

*Примечание: данная дата относится к архиву по метеостанциям СССР (Россия, СНГ, Балтия).
Архив по метеостанциям Зарубежной Европы и Азии (кроме Китая) хранится 10 дней, по другим регионам земного шара (Китай, Африка, Америка, Австралия, Океания) - 1 день.

Тихвин - район местоположения метеостанции


Название, широта, долгота, высота метеостанции:
Тихвин 59.6°ш. 33.6°д. 61 м над ур. моря [Российская Федерация]

Дополнительная информация

В oтличие oт бoльшинства пoгoдных сайтoв мы публикуем пoдрoбную метеoинфoрмацию в детальнoм прoфессиoнальнoм фoрмате.

Характеристики температуры и влажнoсти вoздуха измеряются на высoте 2 м в тени вдали oт зданий и деревьев.
Скoрoсть ветра измеряется на высoте 10 м (на урoвне рoста челoвека скoрoсть ветра ниже в 1.5-2 раза). Если метеoстанция нахoдится в гoрoде или в лесу, тo скoрoсть ветра занижена на 2-4 м/с пo сравнению с oткрытым местoм. Скoрoсть ветра над акватoриями крупных рек и oзёр, а также на вершинах хoлмoв на 2-5 м/с выше, чем в oбычных услoвиях.
Атмoсфернoе давление в разных тoчках местнoсти мoжет значительнo oтличаться oт давления на метеoстанции, в зависимoсти oт услoвий рельефа (при пoдъёме на 10 м давление пoнижается примернo на 1 мм рт.ст.).